This demonstration page uses our WeatherBlox Daily Observations layout. Learn more.

Left ArrowRight Arrow

Hourly Observations for September 15, 2019

Temp ( °F °C ) Dew Point ( °F °C ) Humidity (%) Winds ( mph kmh ) Pressure ( in mb ) Visibility ( mi km ) Precip ( " mm )
12:53 am 00:53 Clear 73 22.8 68 20 84 84 NNE 6 9 30.15 1021 10 16 0.00 0.00
1:53 am 01:53 Clear 72 22.2 68 20 87 87 NNE 3 6 30.15 1021 10 16 0.00 0.00
2:53 am 02:53 Clear 72 22.2 67 19.4 84 84 Calm 30.14 1021 10 16 0.00 0.00
3:53 am 03:53 Clear 70 21.1 67 19.4 90 90 N 5 7 30.13 1020 10 16 0.00 0.00
4:53 am 04:53 Clear 69 20.6 66 18.9 90 90 N 3 6 30.12 1020 10 16 0.00 0.00
5:53 am 05:53 Clear 68 20 66 18.9 93 93 N 3 6 30.12 1020 10 16 0.00 0.00
6:53 am 06:53 Clear 68 20 66 18.9 93 93 Calm 30.14 1021 10 16 0.00 0.00
7:53 am 07:53 Sunny 69 20.6 67 19.4 93 93 Calm 30.14 1021 10 16 0.00 0.00
8:53 am 08:53 Sunny 72 22.2 68 20 87 87 Calm 30.16 1021 10 16 0.00 0.00
9:53 am 09:53 Sunny 76 24.4 69 20.6 79 79 NE 5 7 30.15 1021 10 16 0.00 0.00
10:53 am 10:53 Sunny 80 26.7 69 20.6 69 69 VRB 3 6 30.15 1021 10 16 0.00 0.00
11:53 am 11:53 Mostly Sunny 83 28.3 68 20 61 61 E 7 11 30.14 1021 10 16 0.00 0.00
12:53 pm 12:53 Mostly Cloudy 86 30 68 20 55 55 ENE 8 13 30.13 1020 10 16 0.00 0.00
1:53 pm 13:53 Mostly Cloudy 87 30.6 69 20.6 55 55 N 6 9 30.11 1020 10 16 0.00 0.00
2:53 pm 14:53 Mostly Sunny 88 31.1 68 20 52 52 NNE 7 11 30.07 1018 10 16 0.00 0.00
3:53 pm 15:53 Sunny 91 32.8 66 18.9 44 44 E 7 11 30.04 1017 10 16 0.00 0.00
4:53 pm 16:53 Mostly Sunny 92 33.3 67 19.4 44 44 VRB 6 9 30.03 1017 10 16 0.00 0.00
5:53 pm 17:53 Sunny 91 32.8 63 17.2 39 39 NNE 8 13 30.02 1017 10 16 0.00 0.00
6:53 pm 18:53 Sunny 89 31.7 64 17.8 43 43 ENE 6 9 30.02 1017 10 16 0.00 0.00
7:53 pm 19:53 Clear 87 30.6 66 18.9 50 50 ESE 3 6 30.02 1017 10 16 0.00 0.00
8:53 pm 20:53 Clear 79 26.1 69 20.6 72 72 Calm 30.04 1017 10 16 0.00 0.00
9:53 pm 21:53 Clear 78 25.6 69 20.6 74 74 Calm 30.05 1018 10 16 0.00 0.00
10:53 pm 22:53 Clear 77 25 69 20.6 77 77 Calm 30.06 1018 10 16 0.00 0.00
11:53 pm 23:53 Clear 73 22.8 69 20.6 87 87 Calm 30.06 1018 10 16 0.00 0.00

Powered by AerisWeather